When you browse on this site, cookies collect data to enhance your experience and personalize the content and advertising you see.
Visit our Privacy Policy to learn more. By continuing to use the site, you agree to this use of cookies and data.
  • In Austria
  • List of Countries
  • For 7 days
  • Water Temperature
  • Weather Map
  • News
  • Weather Widgets
  • user-avatar
    Login

    Hourly Weather Ангельсберг

    Today, 23 September, Monday

    Time Temperature Precipitation Wind Pressure Humidity
    00:00 +14°C° 0 mm 1 mps 726 mmHg 98%
    01:00 +14°C° 1 mm 1 mps 726 mmHg 98%
    02:00 +13°C° 1 mm 2 mps 726 mmHg 97%
    03:00 +13°C° 1 mm 2 mps 726 mmHg 97%
    04:00 +12°C° 0.1 mm 3 mps 727 mmHg 96%
    05:00 +12°C° 0.1 mm 3 mps 727 mmHg 95%
    06:00 +12°C° 0 mm 3 mps 728 mmHg 93%
    07:00 +13°C° 0 mm 3 mps 728 mmHg 91%
    08:00 +13°C° 0 mm 3 mps 728 mmHg 88%
    09:00 +13°C° 0 mm 3 mps 728 mmHg 85%
    10:00 +14°C° 0 mm 3 mps 729 mmHg 82%
    11:00 +16°C° 0 mm 3 mps 729 mmHg 78%
    12:00 +15°C° 0 mm 4 mps 729 mmHg 74%
    13:00 +17°C° 0 mm 4 mps 729 mmHg 72%
    14:00 +17°C° 0 mm 4 mps 729 mmHg 71%
    15:00 +17°C° 0 mm 4 mps 729 mmHg 69%
    16:00 +16°C° 0 mm 3 mps 729 mmHg 75%
    17:00 +14°C° 0 mm 3 mps 728 mmHg 81%
    18:00 +13°C° 0 mm 2 mps 728 mmHg 88%
    19:00 +13°C° 0 mm 2 mps 729 mmHg 89%
    20:00 +12°C° 0 mm 1 mps 729 mmHg 91%
    21:00 +11°C° 0 mm 1 mps 729 mmHg 92%
    22:00 +11°C° 0 mm 1 mps 729 mmHg 92%
    23:00 +11°C° 0 mm 1 mps 729 mmHg 92%

    Tomorrow, 24 September, Tuesday

    Time Temperature Precipitation Wind Pressure Humidity
    00:00 +11°C° 0 mm 1 mps 729 mmHg 92%
    01:00 +10°C° 0 mm 1 mps 728 mmHg 93%
    02:00 +10°C° 0 mm 1 mps 728 mmHg 93%
    03:00 +9°C° 0 mm 2 mps 727 mmHg 93%
    04:00 +9°C° 0 mm 2 mps 727 mmHg 92%
    05:00 +10°C° 0 mm 2 mps 727 mmHg 91%
    06:00 +10°C° 0 mm 2 mps 726 mmHg 90%
    07:00 +12°C° 0 mm 2 mps 726 mmHg 85%
    08:00 +12°C° 0 mm 3 mps 726 mmHg 79%
    09:00 +14°C° 0 mm 3 mps 725 mmHg 74%
    10:00 +14°C° 0 mm 4 mps 725 mmHg 71%
    11:00 +15°C° 0 mm 5 mps 725 mmHg 67%
    12:00 +16°C° 0 mm 5 mps 724 mmHg 63%
    13:00 +15°C° 0.8 mm 5 mps 724 mmHg 73%
    14:00 +13°C° 0.8 mm 4 mps 723 mmHg 83%
    15:00 +12°C° 0.8 mm 4 mps 723 mmHg 93%
    16:00 +12°C° 0.5 mm 4 mps 723 mmHg 94%
    17:00 +12°C° 0.5 mm 4 mps 722 mmHg 95%
    18:00 +12°C° 0.5 mm 4 mps 722 mmHg 96%
    19:00 +12°C° 0.3 mm 3 mps 722 mmHg 96%
    20:00 +12°C° 0.3 mm 3 mps 722 mmHg 97%
    21:00 +12°C° 0.3 mm 3 mps 722 mmHg 97%
    22:00 +12°C° 0.2 mm 3 mps 722 mmHg 97%
    23:00 +11°C° 0.2 mm 3 mps 722 mmHg 97%

    Day after tomorrow, 25 September, Wednesday

    Time Temperature Precipitation Wind Pressure Humidity
    00:00 +12°C° 0.2 mm 2 mps 722 mmHg 96%
    01:00 +11°C° 0.4 mm 3 mps 722 mmHg 96%
    02:00 +11°C° 0.4 mm 3 mps 722 mmHg 96%
    03:00 +11°C° 0.4 mm 3 mps 722 mmHg 96%
    04:00 +11°C° 0.2 mm 3 mps 722 mmHg 96%
    05:00 +11°C° 0.2 mm 4 mps 722 mmHg 96%
    06:00 +11°C° 0.2 mm 4 mps 722 mmHg 95%
    07:00 +10°C° 0 mm 5 mps 723 mmHg 92%
    08:00 +10°C° 0 mm 5 mps 723 mmHg 89%
    09:00 +11°C° 0 mm 6 mps 723 mmHg 85%
    10:00 +10°C° 0.7 mm 6 mps 723 mmHg 88%
    11:00 +10°C° 0.7 mm 5 mps 723 mmHg 92%
    12:00 +10°C° 0.7 mm 5 mps 723 mmHg 95%
    13:00 +10°C° 0.2 mm 5 mps 723 mmHg 94%
    14:00 +10°C° 0.2 mm 5 mps 723 mmHg 94%
    15:00 +12°C° 0.2 mm 5 mps 723 mmHg 93%
    16:00 +12°C° 0.2 mm 5 mps 723 mmHg 93%
    17:00 +12°C° 0.2 mm 4 mps 723 mmHg 94%
    18:00 +11°C° 0.2 mm 4 mps 723 mmHg 94%
    19:00 +12°C° 0.3 mm 4 mps 723 mmHg 94%
    20:00 +12°C° 0.3 mm 4 mps 723 mmHg 95%
    21:00 +12°C° 0.3 mm 4 mps 723 mmHg 96%
    22:00 +12°C° 0.1 mm 4 mps 723 mmHg 96%
    23:00 +12°C° 0.1 mm 4 mps 723 mmHg 96%

    26 September, Thursday

    Time Temperature Precipitation Wind Pressure Humidity
    00:00 +12°C° 0.1 mm 4 mps 723 mmHg 96%
    01:00 +12°C° 0.1 mm 4 mps 724 mmHg 96%
    02:00 +12°C° 0.1 mm 3 mps 724 mmHg 96%
    03:00 +12°C° 0.1 mm 3 mps 724 mmHg 96%
    04:00 +13°C° 0.3 mm 3 mps 724 mmHg 96%
    05:00 +13°C° 0.3 mm 3 mps 724 mmHg 97%
    06:00 +13°C° 0.3 mm 3 mps 725 mmHg 97%
    07:00 +13°C° 0.7 mm 4 mps 725 mmHg 97%
    08:00 +13°C° 0.7 mm 4 mps 725 mmHg 97%
    09:00 +13°C° 0.7 mm 4 mps 726 mmHg 97%
    10:00 +14°C° 0.5 mm 4 mps 726 mmHg 96%
    11:00 +15°C° 0.5 mm 4 mps 726 mmHg 95%
    12:00 +15°C° 0.5 mm 4 mps 726 mmHg 94%
    13:00 +16°C° 0.3 mm 5 mps 727 mmHg 90%
    14:00 +17°C° 0.3 mm 5 mps 727 mmHg 87%
    15:00 +19°C° 0.3 mm 6 mps 727 mmHg 83%
    16:00 +16°C° 0.2 mm 6 mps 727 mmHg 86%
    17:00 +15°C° 0.2 mm 5 mps 727 mmHg 88%
    18:00 +14°C° 0.2 mm 4 mps 727 mmHg 91%
    19:00 +14°C° 0 mm 4 mps 727 mmHg 91%
    20:00 +14°C° 0 mm 4 mps 727 mmHg 91%
    21:00 +14°C° 0 mm 4 mps 727 mmHg 91%
    22:00 +13°C° 0 mm 4 mps 727 mmHg 92%
    23:00 +13°C° 0 mm 4 mps 727 mmHg 93%

    27 September, Friday

    Time Temperature Precipitation Wind Pressure Humidity
    00:00 +13°C° 0 mm 4 mps 727 mmHg 93%
    01:00 +13°C° 0 mm 4 mps 727 mmHg 93%
    02:00 +13°C° 0 mm 4 mps 727 mmHg 93%
    03:00 +12°C° 0 mm 4 mps 727 mmHg 93%
    04:00 +12°C° 0.2 mm 4 mps 727 mmHg 94%
    05:00 +12°C° 0.2 mm 4 mps 726 mmHg 94%
    06:00 +12°C° 0.2 mm 5 mps 726 mmHg 95%
    07:00 +12°C° 0.4 mm 4 mps 727 mmHg 95%
    08:00 +13°C° 0.4 mm 4 mps 727 mmHg 95%
    09:00 +13°C° 0.4 mm 4 mps 727 mmHg 95%
    10:00 +13°C° 0.4 mm 4 mps 727 mmHg 94%
    11:00 +13°C° 0.4 mm 5 mps 727 mmHg 94%
    12:00 +13°C° 0.4 mm 5 mps 727 mmHg 93%
    13:00 +14°C° 0.3 mm 5 mps 727 mmHg 90%
    14:00 +14°C° 0.3 mm 6 mps 727 mmHg 87%
    15:00 +15°C° 0.3 mm 6 mps 727 mmHg 84%
    16:00 +14°C° 0.2 mm 5 mps 727 mmHg 87%
    17:00 +13°C° 0.2 mm 4 mps 727 mmHg 91%
    18:00 +12°C° 0.2 mm 3 mps 727 mmHg 94%
    19:00 +11°C° 0.1 mm 3 mps 727 mmHg 94%
    20:00 +11°C° 0.1 mm 3 mps 727 mmHg 94%
    21:00 +10°C° 0.1 mm 3 mps 727 mmHg 94%
    22:00 +10°C° 0.1 mm 3 mps 727 mmHg 93%
    23:00 +10°C° 0.1 mm 3 mps 727 mmHg 92%

    28 September, Saturday

    Time Temperature Precipitation Wind Pressure Humidity
    00:00 +10°C° 0.1 mm 3 mps 727 mmHg 92%
    01:00 +10°C° 0.1 mm 4 mps 727 mmHg 92%
    02:00 +10°C° 0.1 mm 4 mps 727 mmHg 93%
    03:00 +8°C° 0.1 mm 4 mps 727 mmHg 94%
    04:00 +8°C° 0.1 mm 4 mps 727 mmHg 94%
    05:00 +8°C° 0.1 mm 5 mps 727 mmHg 94%
    06:00 +8°C° 0.1 mm 5 mps 728 mmHg 94%
    07:00 +9°C° 0.1 mm 5 mps 728 mmHg 88%
    08:00 +10°C° 0.1 mm 6 mps 728 mmHg 81%
    09:00 +12°C° 0.1 mm 7 mps 729 mmHg 74%
    10:00 +12°C° 0.1 mm 7 mps 729 mmHg 70%
    11:00 +14°C° 0.1 mm 7 mps 729 mmHg 65%
    12:00 +15°C° 0.1 mm 7 mps 729 mmHg 61%
    13:00 +15°C° 0.1 mm 7 mps 729 mmHg 63%
    14:00 +14°C° 0.1 mm 7 mps 728 mmHg 64%
    15:00 +14°C° 0.1 mm 6 mps 728 mmHg 66%
    16:00 +13°C° 0.1 mm 6 mps 728 mmHg 72%
    17:00 +12°C° 0.1 mm 5 mps 728 mmHg 79%
    18:00 +11°C° 0.1 mm 4 mps 728 mmHg 85%
    19:00 +11°C° 0 mm 3 mps 728 mmHg 85%
    20:00 +11°C° 0 mm 3 mps 728 mmHg 85%
    21:00 +11°C° 0 mm 3 mps 728 mmHg 85%
    22:00 +11°C° 0 mm 3 mps 728 mmHg 86%
    23:00 +11°C° 0 mm 3 mps 727 mmHg 88%
    Show more